TimeMST,TemperatureF,Dew PointF,Humidity,Sea Level PressureIn,VisibilityMPH,Wind Direction,Wind SpeedMPH,Gust SpeedMPH,PrecipitationIn,Events,Conditions,WindDirDegrees,DateUTC
12:56 AM,57.0,28.0,33,29.98,10.0,Calm,Calm,-,N/A,,Clear,0,2012-10-28 07:56:00
1:56 AM,54.0,28.0,37,29.98,10.0,Calm,Calm,-,N/A,,Clear,0,2012-10-28 08:56:00
2:56 AM,51.1,28.0,41,29.98,10.0,Calm,Calm,-,N/A,,Clear,0,2012-10-28 09:56:00
3:56 AM,52.0,28.0,40,29.97,10.0,Calm,Calm,-,N/A,,Clear,0,2012-10-28 10:56:00
4:56 AM,52.0,28.0,40,29.99,10.0,Calm,Calm,-,N/A,,Clear,0,2012-10-28 11:56:00
5:56 AM,50.0,28.0,43,30.02,10.0,South,4.6,-,N/A,,Clear,170,2012-10-28 12:56:00
6:56 AM,54.0,28.0,37,30.03,10.0,Calm,Calm,-,N/A,,Clear,0,2012-10-28 13:56:00
7:56 AM,57.0,28.9,34,30.06,10.0,Calm,Calm,-,N/A,,Clear,0,2012-10-28 14:56:00
8:56 AM,64.0,30.0,28,30.05,10.0,ENE,3.5,-,N/A,,Clear,70,2012-10-28 15:56:00
9:56 AM,70.0,30.9,24,30.03,10.0,SE,3.5,-,N/A,,Clear,130,2012-10-28 16:56:00
10:56 AM,73.0,30.9,21,30.02,10.0,East,5.8,-,N/A,,Clear,90,2012-10-28 17:56:00
11:56 AM,75.0,30.0,19,30.01,10.0,SE,3.5,-,N/A,,Clear,140,2012-10-28 18:56:00
12:56 PM,77.0,28.9,17,29.97,10.0,Calm,Calm,-,N/A,,Clear,0,2012-10-28 19:56:00
1:56 PM,79.0,28.9,16,29.95,10.0,Variable,4.6,-,N/A,,Clear,0,2012-10-28 20:56:00
2:56 PM,79.0,28.0,15,29.95,10.0,Calm,Calm,-,N/A,,Clear,0,2012-10-28 21:56:00
3:56 PM,80.1,28.0,15,29.94,10.0,Variable,4.6,-,N/A,,Clear,0,2012-10-28 22:56:00
4:56 PM,79.0,28.0,15,29.95,10.0,SSE,4.6,-,N/A,,Clear,160,2012-10-28 23:56:00
5:56 PM,73.0,28.0,19,29.99,10.0,Calm,Calm,-,N/A,,Clear,0,2012-10-29 00:56:00
6:56 PM,66.9,28.0,23,30.01,10.0,WSW,6.9,-,N/A,,Clear,240,2012-10-29 01:56:00
7:56 PM,64.9,27.0,24,30.03,10.0,WSW,12.7,-,N/A,,Clear,250,2012-10-29 02:56:00
8:56 PM,64.9,27.0,24,30.04,10.0,West,12.7,-,N/A,,Clear,260,2012-10-29 03:56:00
9:56 PM,64.0,28.0,26,30.04,10.0,WSW,11.5,-,N/A,,Clear,250,2012-10-29 04:56:00
10:56 PM,64.0,28.9,27,30.04,10.0,West,8.1,-,N/A,,Clear,260,2012-10-29 05:56:00
11:56 PM,62.1,30.0,30,30.05,10.0,WSW,9.2,-,N/A,,Clear,240,2012-10-29 06:56:00